Weather in Dyad'kovo

Russia / Ryazan Oblast     54°36′21″N   39°51′47″E
temp.,
°C
wind,
m/s
gust,
m/s
humid.,
%
clouds,
%
prec.,
mm/h
press.,
hPa
HPBL,
m
1 march, mon
mon100:00−7ne229796 0.0 102150
03:00−11n229581 0.1 102321
06:00−13nnw22970 0.0 102421
09:00−10wnw11960 0.0 102522
12:00−5wsw349440 0.0 1025242
15:00−3wsw589456 0.0 1023428
18:00−2wsw51091100 0.0 1021567
21:00−1w61293100 0.1 1019507
2 march, tue
tue200:00+1w61293100 0.0 1016529
03:00+1wsw71393100 0.0 1014555
06:00+1w61394100 0.0 1011636
09:00+1w71299100 0.1 1010551
12:00+1nw712100100 0.1 1008654
15:00+1nw6129183 0.2 1008722
18:00−1nw5128798 0.0 1008459
21:00−1nw5118999 0.1 1009540
3 march, wed
wed300:00−2nw51293100 0.1 1010434
03:00−3nw71391100 0.3 1011738
06:00−5nw7148899 0.1 1012633
09:00−6nw7139193 0.1 1014761
12:00−4nw7118167 0.0 1015907
15:00−1nw7108566 0.1 1015956
18:00−2wnw61292100 0.1 1014702
21:00−2w51190100 0.3 1015543
4 march, thu
thu400:00−3w5129395 0.1 1013383
03:00−3wsw6139195 0.1 1011457
06:00−3wsw71589100 0.0 1008465
09:00−1wsw9188998 0.0 1005561
12:00+1wsw91685100 0.0 10021028
15:00+1wsw81487100 0.0 10001097
18:000w91692100 0.0 9981053
21:000w8169199 0.2 999761
5 march, fri
fri500:00−4wnw6128699 0.3 1001395
03:00−7nw489466 0.3 1005153
06:00−9nw34960 0.0 100852
09:00−8wnw24950 0.0 1009114
12:00−5nw23870 0.0 1011323
15:00−4wnw228528 0.0 1012420
18:00−6wsw2291100 0.0 101321
21:00−7ssw1190100 0.0 101421